• In Belarus
  • List of Countries
  • For 7 days
  • Water Temperature
  • Satellite Maps
  • Weather Map
  • Weather Widgets
  • user-avatar
    Login

    Hourly Weather Sofia

    Today, 23 November, Thursday

    Time Temperature Precipitation Wind Pressure Humidity
    00:00 +5°C° 0 mm 1 mps 711 mmHg 74%
    01:00 +5°C° 0 mm 1 mps 711 mmHg 74%
    02:00 +5°C° 0 mm 1 mps 711 mmHg 74%
    03:00 +5°C° 0 mm 1 mps 711 mmHg 74%
    04:00 +5°C° 0 mm 1 mps 711 mmHg 74%
    05:00 +5°C° 0 mm 1 mps 711 mmHg 75%
    06:00 +5°C° 0 mm 1 mps 712 mmHg 74%
    07:00 +5°C° 0 mm 1 mps 712 mmHg 74%
    08:00 +5°C° 0 mm 1 mps 712 mmHg 73%
    09:00 +7°C° 0 mm 1 mps 713 mmHg 68%
    10:00 +10°C° 0 mm 1 mps 713 mmHg 63%
    11:00 +12°C° 0 mm 1 mps 713 mmHg 58%
    12:00 +12°C° 0 mm 0 mps 713 mmHg 56%
    13:00 +12°C° 0 mm 0 mps 713 mmHg 54%
    14:00 +13°C° 0 mm 0 mps 713 mmHg 52%
    15:00 +11°C° 0 mm 0 mps 713 mmHg 58%
    16:00 +10°C° 0 mm 0 mps 712 mmHg 63%
    17:00 +8°C° 0 mm 0 mps 712 mmHg 69%
    18:00 +7°C° 0 mm 0 mps 712 mmHg 71%
    19:00 +7°C° 0 mm 0 mps 713 mmHg 72%
    20:00 +7°C° 0 mm 1 mps 713 mmHg 73%
    21:00 +7°C° 0 mm 1 mps 713 mmHg 73%
    22:00 +7°C° 0 mm 1 mps 713 mmHg 73%
    23:00 +7°C° 0 mm 1 mps 713 mmHg 73%

    Tomorrow, 24 November, Friday

    Time Temperature Precipitation Wind Pressure Humidity
    00:00 +6°C° 0 mm 1 mps 713 mmHg 72%
    01:00 +6°C° 0 mm 1 mps 713 mmHg 72%
    02:00 +6°C° 0 mm 1 mps 713 mmHg 71%
    03:00 +6°C° 0 mm 1 mps 713 mmHg 71%
    04:00 +6°C° 0 mm 1 mps 713 mmHg 70%
    05:00 +5°C° 0 mm 1 mps 713 mmHg 70%
    06:00 +5°C° 0 mm 1 mps 713 mmHg 69%
    07:00 +5°C° 0 mm 1 mps 713 mmHg 69%
    08:00 +5°C° 0 mm 1 mps 713 mmHg 68%
    09:00 +8°C° 0 mm 1 mps 714 mmHg 63%
    10:00 +10°C° 0 mm 1 mps 714 mmHg 57%
    11:00 +11°C° 0 mm 0 mps 714 mmHg 51%
    12:00 +12°C° 0 mm 0 mps 714 mmHg 50%
    13:00 +12°C° 0 mm 0 mps 714 mmHg 48%
    14:00 +13°C° 0 mm 0 mps 713 mmHg 47%
    15:00 +11°C° 0 mm 0 mps 713 mmHg 53%
    16:00 +10°C° 0 mm 0 mps 713 mmHg 60%
    17:00 +8°C° 0 mm 0 mps 713 mmHg 66%
    18:00 +7°C° 0 mm 0 mps 713 mmHg 68%
    19:00 +7°C° 0 mm 0 mps 713 mmHg 70%
    20:00 +7°C° 0 mm 1 mps 714 mmHg 72%
    21:00 +7°C° 0 mm 1 mps 714 mmHg 73%
    22:00 +7°C° 0 mm 1 mps 714 mmHg 74%
    23:00 +6°C° 0 mm 1 mps 714 mmHg 74%

    Day after tomorrow, 25 November, Saturday

    Time Temperature Precipitation Wind Pressure Humidity
    00:00 +6°C° 0 mm 1 mps 714 mmHg 75%
    01:00 +6°C° 0 mm 1 mps 714 mmHg 75%
    02:00 +6°C° 0 mm 1 mps 714 mmHg 76%
    03:00 +6°C° 0 mm 1 mps 714 mmHg 76%
    04:00 +5°C° 0 mm 1 mps 714 mmHg 76%
    05:00 +5°C° 0 mm 1 mps 713 mmHg 77%
    06:00 +5°C° 0 mm 1 mps 714 mmHg 76%
    07:00 +5°C° 0 mm 1 mps 714 mmHg 76%
    08:00 +5°C° 0 mm 1 mps 714 mmHg 76%
    09:00 +7°C° 0 mm 1 mps 714 mmHg 70%
    10:00 +9°C° 0 mm 1 mps 714 mmHg 63%
    11:00 +11°C° 0 mm 1 mps 714 mmHg 57%
    12:00 +12°C° 0 mm 1 mps 714 mmHg 55%
    13:00 +13°C° 0 mm 1 mps 713 mmHg 53%
    14:00 +13°C° 0 mm 1 mps 713 mmHg 51%
    15:00 +12°C° 0 mm 1 mps 712 mmHg 58%
    16:00 +10°C° 0 mm 1 mps 712 mmHg 65%
    17:00 +9°C° 0 mm 1 mps 712 mmHg 72%
    18:00 +8°C° 0 mm 1 mps 712 mmHg 75%
    19:00 +7°C° 0 mm 1 mps 712 mmHg 78%
    20:00 +7°C° 0 mm 1 mps 712 mmHg 81%
    21:00 +6°C° 0 mm 1 mps 712 mmHg 82%
    22:00 +6°C° 0 mm 1 mps 712 mmHg 83%
    23:00 +6°C° 0 mm 1 mps 712 mmHg 84%

    26 November, Sunday

    Time Temperature Precipitation Wind Pressure Humidity
    00:00 +6°C° 0 mm 1 mps 712 mmHg 85%
    01:00 +5°C° 0 mm 1 mps 712 mmHg 85%
    02:00 +5°C° 0 mm 1 mps 712 mmHg 86%
    03:00 +5°C° 0 mm 1 mps 711 mmHg 86%
    04:00 +5°C° 0 mm 1 mps 711 mmHg 86%
    05:00 +5°C° 0 mm 1 mps 711 mmHg 86%
    06:00 +5°C° 0 mm 1 mps 711 mmHg 85%
    07:00 +6°C° 0 mm 1 mps 711 mmHg 85%
    08:00 +6°C° 0 mm 1 mps 711 mmHg 84%
    09:00 +7°C° 0 mm 1 mps 711 mmHg 77%
    10:00 +9°C° 0 mm 1 mps 711 mmHg 71%
    11:00 +10°C° 0 mm 2 mps 711 mmHg 64%
    12:00 +12°C° 0 mm 2 mps 711 mmHg 62%
    13:00 +12°C° 0 mm 1 mps 710 mmHg 60%
    14:00 +13°C° 0 mm 1 mps 709 mmHg 58%
    15:00 +12°C° 0.1 mm 1 mps 709 mmHg 64%
    16:00 +11°C° 0.1 mm 1 mps 709 mmHg 70%
    17:00 +9°C° 0.1 mm 1 mps 709 mmHg 76%
    18:00 +9°C° 0.2 mm 1 mps 709 mmHg 78%
    19:00 +9°C° 0.2 mm 1 mps 709 mmHg 81%
    20:00 +9°C° 0.2 mm 1 mps 709 mmHg 83%
    21:00 +8°C° 0.3 mm 1 mps 709 mmHg 84%
    22:00 +8°C° 0.3 mm 1 mps 709 mmHg 85%
    23:00 +8°C° 0.3 mm 1 mps 708 mmHg 87%

    27 November, Monday

    Time Temperature Precipitation Wind Pressure Humidity
    00:00 +8°C° 0.2 mm 1 mps 708 mmHg 87%
    01:00 +7°C° 0.2 mm 1 mps 708 mmHg 88%
    02:00 +7°C° 0.2 mm 1 mps 708 mmHg 89%
    03:00 +7°C° 0.5 mm 1 mps 708 mmHg 90%
    04:00 +7°C° 0.5 mm 1 mps 708 mmHg 90%
    05:00 +7°C° 0.5 mm 1 mps 708 mmHg 90%
    06:00 +7°C° 1.1 mm 1 mps 708 mmHg 91%
    07:00 +5°C° 1.1 mm 2 mps 708 mmHg 91%
    08:00 +5°C° 1.1 mm 2 mps 709 mmHg 91%
    09:00 +5°C° 0.3 mm 2 mps 709 mmHg 87%
    10:00 +5°C° 0.3 mm 3 mps 709 mmHg 84%
    11:00 +5°C° 0.3 mm 3 mps 709 mmHg 81%
    12:00 +5°C° 0 mm 3 mps 709 mmHg 78%
    13:00 +5°C° 0 mm 3 mps 709 mmHg 75%
    14:00 +5°C° 0 mm 4 mps 709 mmHg 72%
    15:00 +4°C° 0 mm 3 mps 709 mmHg 74%
    16:00 +3°C° 0 mm 3 mps 709 mmHg 76%
    17:00 +3°C° 0 mm 3 mps 710 mmHg 78%
    18:00 +2°C° 0 mm 3 mps 710 mmHg 80%
    19:00 +1°C° 0 mm 3 mps 710 mmHg 82%
    20:00 +2°C° 0 mm 2 mps 711 mmHg 84%
    21:00 +1°C° 0 mm 2 mps 711 mmHg 84%
    22:00 +1°C° 0 mm 2 mps 711 mmHg 85%
    23:00 -1°C° 0 mm 2 mps 711 mmHg 85%

    28 November, Tuesday

    Time Temperature Precipitation Wind Pressure Humidity
    00:00 -1°C° 0 mm 2 mps 711 mmHg 85%
    01:00 -1°C° 0 mm 2 mps 711 mmHg 85%
    02:00 -2°C° 0 mm 2 mps 711 mmHg 84%
    03:00 -2°C° 0 mm 2 mps 711 mmHg 84%
    04:00 -2°C° 0 mm 2 mps 711 mmHg 83%
    05:00 -2°C° 0 mm 2 mps 711 mmHg 83%
    06:00 -2°C° 0 mm 2 mps 712 mmHg 82%
    07:00 -3°C° 0 mm 2 mps 712 mmHg 81%
    08:00 -3°C° 0 mm 2 mps 712 mmHg 80%
    09:00 -1°C° 0 mm 2 mps 712 mmHg 72%
    10:00 +1°C° 0 mm 2 mps 713 mmHg 64%
    11:00 +2°C° 0 mm 2 mps 713 mmHg 56%
    12:00 +3°C° 0 mm 2 mps 712 mmHg 52%
    13:00 +4°C° 0 mm 2 mps 712 mmHg 48%
    14:00 +5°C° 0 mm 1 mps 712 mmHg 44%
    15:00 +4°C° 0 mm 1 mps 712 mmHg 49%
    16:00 +3°C° 0 mm 1 mps 711 mmHg 54%
    17:00 +2°C° 0 mm 1 mps 711 mmHg 59%
    18:00 +1°C° 0 mm 1 mps 712 mmHg 60%
    19:00 +1°C° 0 mm 1 mps 712 mmHg 61%
    20:00 +1°C° 0 mm 1 mps 712 mmHg 62%
    21:00 +1°C° 0 mm 1 mps 712 mmHg 61%
    22:00 +1°C° 0 mm 1 mps 712 mmHg 60%
    23:00 0°C° 0 mm 1 mps 712 mmHg 59%
    Show more